Regional Weather Roundup
Issued by NWS

Home | Current Version | Previous Version | Graphics & Text | Print | Product List | Glossary On
Versions: 1 2 3 4 5 6 7 8 9 10 11 12 13 14 15 16 17 18 19 20 21 22 23 24 25 26 27 28 29 30 31 32 33 34 35 36 37 38 39 40 41 42 43 44 45 46 47 48 49 50
186
ASUS43 KMPX 210310
RWRMN
WEATHER ROUNDUP FOR MINNESOTA
NATIONAL WEATHER SERVICE TWIN CITIES/CHANHASSEN MN
1000 PM CDT WED SEP 20 2017


NOTE: "FAIR" INDICATES FEW OR NO CLOUDS BELOW 12,000 FEET WITH NO
SIGNIFICANT WEATHER AND/OR OBSTRUCTIONS TO VISIBILITY. N/A MEANS
CURRENT SKY AND/OR WEATHER CONDITIONS ARE NOT AVAILABLE.

MNZ060>063-068>070-210400-
   Twin Cities Metro

CITY           SKY/WX    TMP DP  RH WIND       PRES   REMARKS
TWIN CITIES    CLEAR     63  53  70 NW6       29.91R
ST PAUL        CLEAR     61  53  75 CALM      29.92R
CRYSTAL        CLEAR     56  49  77 CALM      29.90R
BLAINE         CLEAR     57  52  82 CALM      29.91R
LAKEVILLE      CLEAR     54  54 100 CALM      29.91S
EDEN PRAIRIE   CLEAR     60  53  77 NW5       29.90R
SOUTH ST PAUL  CLEAR     61  53  74 CALM      29.91R
LAKE ELMO      FAIR      54  54 100 CALM      29.92R
$$
MNZ001>005-007-008-013>017-022>024-027-028-210400-
   Northwest Minnesota

CITY           SKY/WX    TMP DP  RH WIND       PRES   REMARKS
BEMIDJI        CLEAR     53  44  71 S5        29.88S
HALLOCK        CLOUDY    54  45  71 S10       29.77R
ROSEAU         CLEAR     55  46  71 S9        29.81R
WARROAD        CLEAR     55  45  67 S7        29.82R
THIEF RVR FALL CLEAR     56  44  64 S8        29.84R
CROOKSTON      CLEAR     59  45  58 S10       29.83R
FOSSTON        CLEAR     52  43  71 S7        29.87R
DETROIT LAKES  CLEAR     54  48  82 SE6       29.90R
MOORHEAD       CLEAR     55  46  71 SE3       29.86R
PARK RAPIDS    CLEAR     53  46  77 S6        29.90R
MAHNOMEN       FAIR      53  44  70 S6        29.87R
$$
MNZ006-009>011-018-025>026-210400-
   North Central Minnesota

CITY           SKY/WX    TMP DP  RH WIND       PRES   REMARKS
BAUDETTE       CLEAR     54  45  71 S7        29.83R
FLAG ISLAND    CLEAR     61  52  72 S8        29.79R
INTL FALLS     CLEAR     44  41  89 CALM      29.87R
WASKISH        CLEAR     54  45  71 S5        29.87R
BIG FORK       CLEAR     45  45 100 CALM      29.90S FOG
LONGVILLE      CLEAR     45  45 100 CALM      29.91R
GRAND RAPIDS   CLEAR     47  46  97 S3        29.93R
CRANE LAKE     CLEAR     43  43 100 CALM        N/A
ORR            CLEAR     50  45  81 CALM      29.88S
COOK           CLEAR     46  46 100 CALM      29.91R
WALKER         FAIR      49  45  88 S3        29.90R
$$
MNZ012-019>021-037-210400-
   Northeast Minnesota

CITY           SKY/WX    TMP DP  RH WIND       PRES   REMARKS
DULUTH         CLEAR     51  47  86 CALM      29.92R
ELY            CLEAR     48  46  93 CALM      29.92R
HIBBING        CLEAR     43  43 100 CALM      29.92R FOG
EVELETH        CLEAR     46  43  91 CALM      29.93R FOG
DULUTH HARBOR  CLEAR     61  54  77 SW3       29.92R
TWO HARBORS    CLEAR     54  48  82 CALM      29.91R
SILVER BAY     CLEAR     48  48 100 CALM      29.89R
GRAND MARAIS     N/A     58  55  90 NW5       29.89R
$$
MNZ029>031-032-039>041-046>048-054>057-064-210400-
   West Central Minnesota

CITY           SKY/WX    TMP DP  RH WIND       PRES   REMARKS
FERGUS FALLS   CLEAR     55  45  67 SE7       29.89R
WHEATON        CLEAR     54  45  71 SE7       29.90R
MORRIS         CLEAR     54  46  76 SE7       29.89S
ALEXANDRIA     CLEAR     55  47  74 CALM      29.93R
ELBOW LAKE     FAIR      57  44  63 CALM      29.90R
WADENA         CLEAR     50  45  81 CALM      29.91R
GLENWOOD       CLEAR     54  48  82 S5        29.93R
APPLETON       CLEAR     54  46  76 SE5       29.89S
BENSON         CLEAR     57  48  72 S3        29.93R
ORTONVILLE     CLEAR     55  46  71 NE6       29.89
MADISON        CLEAR     57  48  72 SE6       29.90S
WILLMAR        FAIR      54  52  94 CALM      29.94R
$$
MNZ033>034-036-042>043-049>051-058-059-210400-
   Central Minnesota

CITY           SKY/WX    TMP DP  RH WIND       PRES   REMARKS
ST CLOUD       CLEAR     51  50  96 CALM      29.92R
SAUK CENTRE    FAIR      53  48  85 CALM      29.93R
PAYNESVILLE    CLEAR     49  48  98 S5        29.93R
AITKIN         CLEAR     45  43  93 CALM      29.91R FOG
PINE RIVER     CLEAR     45  43  93 CALM      29.95R
BRAINERD       CLEAR     50  48  93 CALM      29.92R
LONG PRAIRIE   FAIR      52  48  87 CALM      29.93R
LITTLE FALLS   CLEAR     48  43  81 CALM      29.93R
LITCHFIELD     CLEAR     55  55 100 CALM      29.93R
BUFFALO        CLEAR     53  48  82 CALM      29.93R
MAPLE LAKE     CLEAR     52  51  97 CALM      29.93R
HUTCHINSON     CLEAR     50  50  97 CALM      29.94R
$$
MNZ037-044-045-052-053-210400-
   East Central Minnesota

CITY           SKY/WX    TMP DP  RH WIND       PRES   REMARKS
PRINCETON      CLEAR     50  48  93 CALM      29.92R
MORA           CLEAR     50  48  93 CALM      29.94R
CAMBRIDGE      CLEAR     54  46  76 CALM      29.92R
RUSH CITY      MOCLDY    50  48  93 CALM      29.92R
MOOSE LAKE     CLEAR     46  45  93 CALM      29.91R
HINCKLEY       FAIR      50  50 100 CALM      29.93R
CLOQUET        CLEAR     50  46  87 CALM      29.92R
MCGREGOR       CLEAR     50  46  87 CALM      29.92R
$$
MNZ071>073-080-081-089-090-097-098-210400-
   Southwest Minnesota

CITY           SKY/WX    TMP DP  RH WIND       PRES   REMARKS
MONTEVIDEO     CLEAR     55  50  82 S5        29.91S
GRANITE FALLS  CLEAR     53  51  92 CALM      29.93R
CANBY          CLEAR     53  50  89 CALM      29.91S
MARSHALL       CLEAR     54  49  83 SW6       29.92R
REDWOOD FALLS  CLEAR     59  51  75 CALM      29.91R
OLIVIA         CLEAR     54  48  82 CALM      29.92R
PIPESTONE      CLEAR     57  46  67 CALM      29.93R
WORTHINGTON    CLEAR     54  48  80 W3        29.93R
JACKSON        CLEAR     54  50  87 CALM      29.93R
TRACY          CLEAR     57  51  80 CALM      29.92R
SLAYTON        CLEAR     56  49  79 CALM      29.93R
$$
MNZ065>067-074>077-082>085-091>093-210400-
   South Central Minnesota

CITY           SKY/WX    TMP DP  RH WIND       PRES   REMARKS
MANKATO        CLEAR     60  50  69 CALM      29.92R
NEW ULM        CLEAR     61  48  63 CALM      29.92R
ST JAMES       CLEAR     55  52  88 CALM      29.93R
FAIRMONT       CLEAR     55  52  89 CALM      29.92R
GLENCOE        CLEAR     55  53  94 CALM      29.92R
FARIBAULT      CLEAR     54  52  94 CALM      29.91S
OWATONNA       CLEAR     54  50  87 CALM      29.91R
WASECA         CLEAR     52  50  93 CALM      29.92S
ALBERT LEA     CLEAR     57  55  94 CALM      29.90S
$$
MNZ078>079-086>088-094>096-210400-
   Southeast Minnesota

CITY           SKY/WX    TMP DP  RH WIND       PRES   REMARKS
ROCHESTER      CLEAR     59  53  80 NW6       29.92R
RED WING       CLEAR     61  52  72 CALM      29.90R
STANTON        CLEAR     56  54  92 S3        29.90R
DODGE CENTER   CLEAR     57  52  82 NW6       29.92R
WINONA         CLEAR     61  59  94 NW5       29.89R
AUSTIN         CLEAR     57  54  88 CALM      29.91R
PRESTON        CLEAR     62  54  73 CALM      29.91R
$$
ABBREVIATIONS USED IN REMARKS
   TC - TEMPERATURES IN CELSIUS
  WCI - WIND CHILL INDEX
   HX - HEAT INDEX
  VSB - VISIBILITY
$$




USA.gov is the U.S. government's official web portal to all federal, state and local government web resources and services.